Regional Weather Roundup
Issued by NWS

Current Version | Previous Version | Text Only | Print | Product List | Glossary On
Versions: 1 2 3 4 5 6 7 8 9 10 11 12 13 14 15 16 17 18 19 20 21 22 23 24 25 26 27
000
ASUS46 KPQR 041010
RWROR

OREGON REGIONAL WEATHER ROUNDUP
NATIONAL WEATHER SERVICE PORTLAND OR
300 AM PDT WED MAY 04 2016

NOTE: "FAIR" INDICATES FEW OR NO CLOUDS BELOW 12,000 FEET WITH
NO SIGNIFICANT WEATHER AND/OR OBSTRUCTIONS TO VISIBILITY.

ORZ001>013-041100-
NORTHWEST OREGON


CITY           SKY/WX    TMP DP  RH WIND       PRES   REMARKS
ASTORIA        CLOUDY    54  46  74 N14       30.11F
NEWPORT        DRIZZLE   52  50  93 N9        30.07F
PORTLAND       CLOUDY    54  50  86 NW5       30.07F
VANCOUVER WA   CLOUDY    54  50  86 CALM      30.06F
SCAPPOOSE      CLOUDY    53  48  83 NW5       30.06F
HILLSBORO      CLOUDY    53  48  83 NW7       30.06F
AURORA         CLOUDY    54  51  90 NW6       30.05F
MCMINNVILLE    CLOUDY    55  50  83 N7        30.06F
SALEM          CLOUDY    56  51  84 NW9       30.04F
CORVALLIS        N/A     55  50  82 NW8       30.05F
EUGENE         CLOUDY    53  50  89 NE8       30.03F
$$

ORZ021-028-041100-
SOUTHWEST OREGON


CITY           SKY/WX    TMP DP  RH WIND       PRES   REMARKS
NORTH BEND     MOCLDY    55  54  94 N8        30.02F
BROOKINGS      LGT RAIN  59  53  80 VRB3      29.91F
ROSEBURG       CLOUDY    56  53  90 N3        29.99F
SEXTON SUMMIT  LGT RAIN  47  45  93 N6        29.98F VSB 1/2
MEDFORD        CLOUDY    56  52  86 CALM      29.95F
$$

ORZ014>016-041-041100-
COLUMBIA GORGE


CITY           SKY/WX    TMP DP  RH WIND       PRES   REMARKS
TROUTDALE      CLOUDY    55  49  80 VRB6      30.06F
THE DALLES     CLOUDY    62  50  64 NW7       30.00F
$$

ORZ029>031-041-044-049-050-061>064-502-503-505>511-041100-
EASTERN OREGON


CITY           SKY/WX    TMP DP  RH WIND       PRES   REMARKS
REDMOND        CLOUDY    51  44  77 NE7       30.03F
BEND           CLOUDY    52  45  76 NW7       30.04F
PRINEVILLE     CLOUDY    50  46  87 NE7       30.03F
KLAMATH FALLS  CLOUDY    47  45  93 CALM      30.02F
LAKEVIEW       CLOUDY    52  39  62 NW3       30.06S
HERMISTON      CLOUDY    64  49  57 NW3       29.97F
PENDLETON      CLOUDY    60  44  55 SE6       30.00F
JOHN DAY       CLOUDY    57  43  61 CALM      30.07R
MEACHAM        MOCLDY    48  41  76 CALM      30.08F
LA GRANDE      MOCLDY    59  37  44 NW10      30.02F
BAKER CITY     CLOUDY    51  39  63 S5        30.05F
BURNS          CLOUDY    55  37  50 NW13      30.05F
ROME             N/A     57  33  40 NE6       30.02S
ONTARIO        CLOUDY    53  43  68 CALM      29.98F
$$




USA.gov is the U.S. government's official web portal to all federal, state and local government web resources and services.